This demonstration page uses our WeatherBlox Daily Observations layout. Learn more.

Left ArrowRight Arrow

Hourly Observations for October 8, 2020

Temp ( °F °C ) Dew Point ( °F °C ) Humidity (%) Winds ( mph kmh ) Pressure ( in mb ) Visibility ( mi km ) Precip ( " mm )
12:15 am 00:15 Clear 59 15.1 43 6 55 55 ENE 10 17 30.03 1017 10 16 N/A
12:35 am 00:35 Clear 60 15.5 42 5.8 53 53 ENE 12 19 30.02 1017 10 16 N/A
12:55 am 00:55 Clear 60 15.7 42 5.7 52 52 ENE 13 20 30.03 1017 10 16 N/A
1:15 am 01:15 Clear 60 15.6 42 5.8 52 52 ENE 10 17 30.02 1017 10 16 N/A
1:35 am 01:35 Clear 61 16 43 6 52 52 E 12 19 30.02 1017 10 16 N/A
1:55 am 01:55 Clear 61 16.1 43 6.2 52 52 E 13 20 30.02 1017 10 16 N/A
2:15 am 02:15 Clear 61 15.9 44 6.5 54 54 E 14 22 30.01 1016 10 16 N/A
2:35 am 02:35 Clear 60 15.5 44 6.7 56 56 E 12 19 30.00 1016 10 16 N/A
2:55 am 02:55 Clear 58 14.6 44 6.6 59 59 E 9 15 30.01 1016 10 16 N/A
3:15 am 03:15 Clear 57 14 44 6.5 61 61 E 9 15 30.01 1016 10 16 N/A
3:35 am 03:35 Clear 56 13.6 44 6.5 62 62 E 9 15 30.01 1016 10 16 N/A
3:55 am 03:55 Clear 55 12.9 44 6.6 66 66 E 10 17 30.02 1016 10 16 N/A
4:15 am 04:15 Clear 56 13.2 45 7 66 66 E 10 17 30.00 1016 10 16 N/A
4:35 am 04:35 Clear 55 12.7 45 7 69 69 E 10 17 30.00 1016 10 16 N/A
4:55 am 04:55 Clear 54 12.3 44 6.9 70 70 E 8 13 30.00 1016 10 16 N/A
5:15 am 05:15 Clear 53 11.6 44 6.7 72 72 E 9 15 30.01 1016 10 16 N/A
5:35 am 05:35 Clear 53 11.5 44 6.8 73 73 E 9 15 30.00 1016 10 16 N/A
5:55 am 05:55 Clear 52 11.2 45 7 76 76 E 9 15 30.00 1016 10 16 N/A
6:15 am 06:15 Clear 52 11.3 45 7.3 77 77 ESE 10 17 30.01 1016 10 16 N/A
6:35 am 06:35 Clear 53 11.4 45 7.3 76 76 E 10 17 30.01 1016 10 16 N/A
6:55 am 06:55 Clear 52 11.2 46 7.5 78 78 E 10 17 30.00 1016 10 16 N/A
7:15 am 07:15 Clear 52 11 46 7.5 79 79 E 12 19 30.01 1016 10 16 N/A
7:35 am 07:35 Clear 51 10.5 45 7.4 81 81 E 9 15 30.01 1016 10 16 N/A
7:55 am 07:55 Sunny 51 10.5 46 7.5 82 82 ESE 9 15 30.02 1017 10 16 N/A
8:15 am 08:15 Partly Cloudy 51 10.7 46 8 84 84 ESE 8 13 30.04 1017 10 16 N/A
8:35 am 08:35 Sunny 53 11.4 47 8.3 81 81 ESE 9 15 30.03 1017 10 16 N/A
8:55 am 08:55 Sunny 55 12.6 48 9.1 79 79 ESE 12 19 30.02 1017 10 16 N/A
9:15 am 09:15 Sunny 56 13.6 49 9.6 77 77 ESE 12 19 30.01 1016 10 16 N/A
9:35 am 09:35 Sunny 59 15 51 10.3 74 74 SE 12 19 30.00 1016 10 16 N/A
9:55 am 09:55 Sunny 61 16.3 52 10.9 71 71 SE 13 20 29.99 1016 10 16 N/A
10:15 am 10:15 Sunny 64 17.8 53 11.5 67 67 SE 14 22 29.97 1015 10 16 N/A
10:35 am 10:35 Sunny 67 19.2 53 11.7 62 62 SE 14 22 29.96 1015 10 16 N/A
10:55 am 10:55 Sunny 69 20.8 54 12 57 57 SE 14 22 29.94 1014 10 16 N/A
11:15 am 11:15 Sunny 72 22.1 54 12 53 53 SSE 13 20 29.92 1013 10 16 N/A
11:35 am 11:35 Sunny 74 23.3 54 12.2 50 50 SSE 14 22 29.90 1013 10 16 N/A
11:55 am 11:55 Sunny 74 23.6 54 12.1 49 49 SSE 14 22 29.89 1012 10 16 N/A
12:15 pm 12:15 Sunny 75 23.8 54 12.3 49 49 S 16 26 29.89 1012 10 16 N/A
12:55 pm 12:55 Sunny 79 26.3 54 12.1 41 41 SSE 16 26 29.85 1011 10 16 N/A
1:15 pm 13:15 Sunny 80 26.9 53 11.9 39 39 SSE 21 33 29.83 1010 10 16 N/A
1:35 pm 13:35 Sunny 80 26.8 53 11.8 39 39 SSE 17 28 29.82 1010 10 16 N/A
1:55 pm 13:55 Sunny 83 28.1 52 11.1 35 35 S 22 35 29.79 1009 10 16 N/A
2:15 pm 14:15 Sunny 84 28.8 51 10.7 32 32 SSE 20 31 29.78 1008 10 16 N/A
2:35 pm 14:35 Sunny 85 29.2 51 10.6 31 31 SSE 21 33 29.76 1008 10 16 N/A
2:55 pm 14:55 Sunny 85 29.2 50 10.1 30 30 S 21 33 29.75 1008 10 16 N/A
3:15 pm 15:15 Sunny 85 29.7 50 9.9 29 29 SSE 21 33 29.74 1007 10 16 N/A
3:35 pm 15:35 Sunny 85 29.7 48 9.1 28 28 S 21 33 29.74 1007 10 16 N/A
3:55 pm 15:55 Sunny 85 29.7 49 9.6 29 29 S 20 31 29.72 1006 10 16 N/A
4:15 pm 16:15 Sunny 86 30 50 10.1 29 29 SSE 18 30 29.73 1007 10 16 N/A
4:35 pm 16:35 Sunny 85 29.7 50 9.9 29 29 SSE 18 30 29.71 1006 10 16 N/A
4:55 pm 16:55 Sunny 86 29.9 50 10 29 29 S 15 24 29.71 1006 10 16 N/A
5:15 pm 17:15 Sunny 85 29.5 50 9.8 29 29 S 16 26 29.70 1006 10 16 N/A
5:35 pm 17:35 Sunny 85 29.2 50 9.8 30 30 SSE 18 30 29.70 1006 10 16 N/A
5:55 pm 17:55 Sunny 84 28.7 46 8 27 27 S 14 22 29.70 1006 10 16 N/A
6:15 pm 18:15 Sunny 83 28.2 48 8.7 29 29 SSE 13 20 29.70 1006 10 16 N/A
6:35 pm 18:35 Sunny 81 27.3 49 9.4 33 33 SSE 12 19 29.70 1006 10 16 N/A
6:55 pm 18:55 Sunny 80 26.5 49 9.5 34 34 S 9 15 29.71 1006 10 16 N/A
7:15 pm 19:15 Clear 77 25.1 49 9.2 37 37 SSE 9 15 29.72 1006 10 16 N/A
7:35 pm 19:35 Clear 76 24.6 49 9.3 38 38 SSE 9 15 29.72 1006 10 16 N/A
7:55 pm 19:55 Clear 75 24 49 9.7 40 40 SSE 9 15 29.74 1007 10 16 N/A
8:15 pm 20:15 Clear 74 23.6 50 10 42 42 SSE 9 15 29.74 1007 10 16 N/A
8:35 pm 20:35 Clear 74 23.3 50 10 43 43 SSE 10 17 29.74 1007 10 16 N/A
8:55 pm 20:55 Clear 73 23 50 10.1 44 44 SSE 10 17 29.74 1007 10 16 N/A
9:15 pm 21:15 Clear 73 22.8 51 10.3 45 45 SSE 10 17 29.74 1007 10 16 N/A
9:35 pm 21:35 Clear 73 22.5 51 10.6 47 47 SSE 10 17 29.75 1007 10 16 N/A
9:55 pm 21:55 Clear 73 22.7 51 10.8 47 47 SSE 10 17 29.75 1007 10 16 N/A
10:15 pm 22:15 Clear 73 22.5 52 11 48 48 SSE 13 20 29.75 1007 10 16 N/A
10:35 pm 22:35 Clear 72 22.1 52 11.1 50 50 SSE 10 17 29.75 1007 10 16 N/A
10:55 pm 22:55 Clear 71 21.5 52 11.2 52 52 SSE 10 17 29.75 1007 10 16 N/A
11:15 pm 23:15 Clear 71 21.5 53 11.4 53 53 SSE 12 19 29.75 1007 10 16 N/A
11:35 pm 23:35 Clear 70 21.1 52 11.3 54 54 SSE 12 19 29.75 1007 10 16 N/A
11:55 pm 23:55 Clear 69 20.8 52 11.3 55 55 SSE 10 17 29.74 1007 10 16 N/A

Powered by AerisWeather